Regional Weather Roundup
Issued by NWS Kansas City/Pleasant Hill, MO

Home | Current Version | Previous Version | Graphics & Text | Print | Product List | Glossary Off
Versions: 1 2 3 4 5 6 7 8 9 10 11 12 13 14 15 16 17 18 19 20 21 22 23 24 25 26 27 28 29 30 31 32 33 34 35 36 37 38 39 40 41 42 43 44 45 46 47 48 49 50

000
ASUS43 KEAX 270110
RWREAX

WEATHER ROUNDUP FOR EASTERN KANSAS AND NORTHWEST MISSOURI
NATIONAL WEATHER SERVICE KANSAS CITY/PLEASANT HILL MO
800 PM CDT WED APR 26 2017

KSZ040-057-103>105-MOZ028-029-037-043-270200-
...KANSAS CITY METROPOLITAN AREA...

CITY           SKY/WX    TMP DP  RH WIND       PRES   REMARKS
K.C. INTL      CLOUDY    46  36  68 NW10G22   29.61R
K.C. DOWNTOWN  CLOUDY    48  37  65 NW12G20   29.61R
LEES SUMMIT    CLOUDY    46  41  82 NW10      29.60R
OLATHE - IXD   CLOUDY    47  37  68 NW13      29.62R
OLATHE - OJC   CLOUDY    46  37  71 NW14      29.61R
LAWRENCE       CLOUDY    47  37  68 NW16      29.64R

$$

MOZ001>008-011>017-020>025-030>033-038>040-044>046-053-054-270200-
...NORTHERN AND CENTRAL MISSOURI...

CITY           SKY/WX    TMP DP  RH WIND       PRES   REMARKS
ST. JOSEPH     CLOUDY    46  37  71 NW13      29.62S
MOSBY          CLOUDY    46  37  71 NW10G18   29.60R
WHITEMAN AFB   LGT RAIN  45  45 100 NW9       29.57R FOG
CLINTON        LGT RAIN  45  45 100 W5        29.60S
SEDALIA        LGT RAIN  47  47 100 NW9       29.57S FOG
WARSAW         NOT AVBL
CHILLICOTHE      N/A     47  41  80 NW6       29.58R
KIRKSVILLE     LGT RAIN  47  46  97 NW8       29.53R

$$

MOZ041-047>049-056>058-063>065-088>090-097-270200-
...EASTERN AND SOUTHERN MISSOURI...

CITY           SKY/WX    TMP DP  RH WIND       PRES   REMARKS
ST. LOUIS INTL TSTM      62  59  90 SE18G29   29.40F
SPIRIT OF STL  TSTM      61  61 100 S6        29.44F FOG
COLUMBIA       LGT RAIN  47  46  97 NW12      29.52F
JEFFERSON CITY LGT RAIN  49  46  90 NW9       29.52S FOG
ROLLA          HVY RAIN  47  47 100 W12       29.49R FOG
OSAGE BEACH    LGT RAIN  46  45  96 W9        29.55S
SPRINGFIELD    CLOUDY    45  43  93 NW13G21   29.57S
BRANSON        LGT RAIN  45  45 100 NW12G18   29.59R
JOPLIN         LGT RAIN  46  45  96 NW9       29.65R
WEST PLAINS    RAIN      51  49  92 NW12      29.49S FOG

$$

IAZ060-094-KSZ022-034>040-054-083-096-NEZ052-066-093-270200-
...KANSAS...SOUTHEAST NEBRASKA AND IOWA...

CITY           SKY/WX    TMP DP  RH WIND       PRES   REMARKS
TOPEKA         CLOUDY    47  37  68 NW13      29.65R
MANHATTAN      CLOUDY    49  35  58 N5        29.67R
EMPORIA        CLOUDY    50  38  63 NW13      29.65R
CHANUTE        CLOUDY    49  40  71 NW6       29.65R
WICHITA        MOCLDY    52  37  56 N9        29.68R
OMAHA          CLOUDY    43  32  65 NW13      29.66R
LINCOLN        CLOUDY    45  33  63 N14       29.69R
FALLS CITY     CLOUDY    43  34  70 NW10      29.65R
LAMONI         CLOUDY    43  37  79 NW15G23   29.58S
DES MOINES     CLOUDY    45  37  73 NW15      29.59F

$$




USA.gov is the U.S. government's official web portal to all federal, state and local government web resources and services.